Terminal Aerodrome Forecast
Issued by NWS Louisville, KY

Home | Current Version | Previous Version | Text Only | Print | Product List | Glossary On
Versions: 1 2 3 4 5 6 7 8 9 10 11 12 13 14 15
000
FTUS43 KLMK 201700 RRA
TAFBWG
TAF
KBWG 201741Z 2018/2118 22008KT P6SM FEW035 BKN110
     FM202300 VRB04KT P6SM SCT035
     FM211500 34006KT P6SM BKN040=

USA.gov is the U.S. government's official web portal to all federal, state and local government web resources and services.